Time,TemperatureF,DewpointF,PressureIn,WindDirection,WindDirectionDegrees,WindSpeedMPH,WindSpeedGustMPH,Humidity,HourlyPrecipIn,Conditions,Clouds,dailyrainin,SolarRadiationWatts/m^2,SoftwareType,DateUTC
2013-03-28 14:52:00,51.0,24.0,-100.00,NW,319,4.0,11.0,35,-99.99,,,0.00,819.000000,,2013-03-28 18:52:00,
2013-03-28 15:02:00,51.0,24.0,-100.00,NW,319,4.0,11.0,35,-99.99,,,0.00,819.000000,,2013-03-28 19:02:00,
2013-03-28 15:33:00,53.0,25.0,-100.00,NNE,17,4.0,11.0,33,0.00,,,0.00,783.000000,,2013-03-28 19:33:00,
2013-03-28 15:43:00,53.0,25.0,-100.00,NNE,17,4.0,11.0,33,0.00,,,0.00,783.000000,,2013-03-28 19:43:00,
2013-03-28 15:52:00,53.0,25.0,-100.00,NNE,17,4.0,11.0,33,0.00,,,0.00,783.000000,,2013-03-28 19:52:00,
2013-03-28 16:03:00,53.0,25.0,-100.00,NNE,17,4.0,11.0,33,0.00,,,0.00,783.000000,,2013-03-28 20:03:00,
2013-03-28 16:33:00,55.0,24.0,-100.00,North,6,3.0,9.0,30,0.00,,,0.00,701.000000,,2013-03-28 20:33:00,
2013-03-28 16:42:00,55.0,24.0,-100.00,North,6,3.0,9.0,30,0.00,,,0.00,701.000000,,2013-03-28 20:42:00,
2013-03-28 16:53:00,55.0,24.0,-100.00,North,6,3.0,9.0,30,0.00,,,0.00,701.000000,,2013-03-28 20:53:00,
2013-03-28 17:03:00,55.0,24.0,-100.00,North,6,3.0,9.0,30,0.00,,,0.00,701.000000,,2013-03-28 21:03:00,
2013-03-28 17:33:00,55.0,23.0,-100.00,NNW,339,4.0,10.0,28,0.00,,,0.00,561.000000,,2013-03-28 21:33:00,
2013-03-28 17:43:00,55.0,23.0,-100.00,NNW,339,4.0,10.0,28,0.00,,,0.00,561.000000,,2013-03-28 21:43:00,
2013-03-28 17:53:00,55.0,23.0,-100.00,NNW,339,4.0,10.0,28,0.00,,,0.00,561.000000,,2013-03-28 21:53:00,
2013-03-28 18:03:00,55.0,23.0,-100.00,NNW,339,4.0,10.0,28,0.00,,,0.00,561.000000,,2013-03-28 22:03:00,
2013-03-28 18:32:00,55.0,23.0,-100.00,NNW,345,3.0,7.0,28,0.00,,,0.00,383.000000,,2013-03-28 22:32:00,
2013-03-28 18:42:00,55.0,23.0,-100.00,NNW,345,3.0,7.0,28,0.00,,,0.00,383.000000,,2013-03-28 22:42:00,
2013-03-28 18:53:00,55.0,23.0,-100.00,NNW,345,3.0,7.0,28,0.00,,,0.00,383.000000,,2013-03-28 22:53:00,
2013-03-28 19:03:00,55.0,23.0,-100.00,NNW,345,3.0,7.0,28,0.00,,,0.00,383.000000,,2013-03-28 23:03:00,
2013-03-28 19:32:00,52.0,21.0,-100.00,NE,39,3.0,8.0,29,0.00,,,0.00,168.000000,,2013-03-28 23:32:00,
2013-03-28 19:42:00,52.0,21.0,-100.00,NE,39,3.0,8.0,29,0.00,,,0.00,168.000000,,2013-03-28 23:42:00,
2013-03-28 19:53:00,52.0,21.0,-100.00,NE,39,3.0,8.0,29,0.00,,,0.00,168.000000,,2013-03-28 23:53:00,
2013-03-28 20:02:00,52.0,21.0,-100.00,NE,39,3.0,8.0,29,0.00,,,0.00,168.000000,,2013-03-29 00:02:00,
2013-03-28 20:33:00,48.0,22.0,-100.00,NW,309,1.0,7.0,35,0.00,,,-99.99,17.000000,,2013-03-29 00:33:00,
2013-03-28 20:42:00,48.0,22.0,-100.00,NW,309,1.0,7.0,35,0.00,,,-99.99,17.000000,,2013-03-29 00:42:00,
2013-03-28 20:52:00,48.0,22.0,-100.00,NW,309,1.0,7.0,35,0.00,,,-99.99,17.000000,,2013-03-29 00:52:00,
2013-03-28 21:02:00,48.0,22.0,-100.00,NW,309,1.0,7.0,35,0.00,,,-99.99,17.000000,,2013-03-29 01:02:00,
2013-03-28 21:33:00,43.0,26.0,-100.00,SSW,209,1.0,2.0,50,0.00,,,-99.99,0.000000,,2013-03-29 01:33:00,
2013-03-28 21:42:00,43.0,26.0,-100.00,SSW,209,1.0,2.0,50,0.00,,,-99.99,0.000000,,2013-03-29 01:42:00,
2013-03-28 21:52:00,43.0,26.0,-100.00,SSW,209,1.0,2.0,50,0.00,,,-99.99,0.000000,,2013-03-29 01:52:00,
2013-03-28 22:02:00,43.0,26.0,-100.00,SSW,209,1.0,2.0,50,0.00,,,-99.99,0.000000,,2013-03-29 02:02:00,
2013-03-28 22:32:00,39.0,26.0,-100.00,WSW,240,2.0,3.0,60,0.00,,,-99.99,0.000000,,2013-03-29 02:32:00,
2013-03-28 22:42:00,39.0,26.0,-100.00,WSW,240,2.0,3.0,60,0.00,,,-99.99,0.000000,,2013-03-29 02:42:00,
2013-03-28 22:53:00,39.0,26.0,-100.00,WSW,240,2.0,3.0,60,0.00,,,-99.99,0.000000,,2013-03-29 02:53:00,
2013-03-28 23:02:00,39.0,26.0,-100.00,WSW,240,2.0,3.0,60,0.00,,,-99.99,0.000000,,2013-03-29 03:02:00,
2013-03-28 23:33:00,35.0,27.0,-100.00,SSE,152,1.0,3.0,73,0.00,,,-99.99,0.000000,,2013-03-29 03:33:00,
2013-03-28 23:43:00,35.0,27.0,-100.00,SSE,152,1.0,3.0,73,0.00,,,-99.99,0.000000,,2013-03-29 03:43:00,
2013-03-28 23:53:00,35.0,27.0,-100.00,SSE,152,1.0,3.0,73,0.00,,,-99.99,0.000000,,2013-03-29 03:53:00,